Location: Unspecified
(44.0704°N, 88.6889°W)
Time: 17:17:20
(UTC+02:00)

Transit 2A - Pass Details

Date: 19 June 2019
Orbit: 594 x 964 km, 66.7° (Epoch: 21 July)

Event Time Altitude Azimuth Distance (km) Brightness Sun altitude
Rises 10:50:04 0° 259° (W) 3,643 - -11.6°
Exits shadow 10:51:22 - 264° (W) 3,248 8.8 -11.5°
Reaches altitude 10° 10:53:20 10° 274° (W) 2,701 8.5 -11.3°
Maximum altitude 10:58:03 21° 322° (NW) 1,990 8.3 -10.7°
Drops below altitude 10° 11:02:40 10° 11° (N) 2,637 9.8 -10.1°
Sets 11:05:49 0° 27° (NNE) 3,534 11.1 -9.8°
